Flag for Germany Weather past 2 weeks in Minden, North Rhine-Westphalia, Germany

Now
70 °F

Broken clouds.


Feels Like: 70 °F
Forecast: 61 / 71 °F
Wind: 7 mph from South

Location: Bueckeburg

Current Time: Sep 19, 2014 at 1:50:38 PM

Latest Report: Sep 19, 2014 at 1:20 PM


Visibility: N/A

Pressure: 29.89 "Hg

Humidity: 78%

Dew point: 63 °F

Location of MindenLocation

Historic Weather in Minden — Graph

°F

Minden temperature yesterday

Maximum temperature yesterday: 79 °F (at 4:20 PM)
Minimum temperature yesterday: 52 °F (at 7:20 AM)
Average temperature yesterday: 64 °F

Past Weeks' High & Low Weather Summary

 TemperatureHumidityPressure
High79 °F (Sep 18, 4:20 PM)100% (Sep 5, 4:20 AM)30.24 "Hg (Sep 5, 4:20 AM)
Low48 °F (Sep 12, 1:20 AM)50% (Sep 17, 3:20 PM)29.86 "Hg (Sep 6, 4:20 PM)
Average62 °F83%30.03 "Hg
* Reported Sep 4 12:20 PM — Sep 19 12:20 PM, Minden, Weather by CustomWeather, © 2014

Note: Actual official high and low records may vary slightly from our data, if they occured in-between our weather recording intervals... More about our weather records

Advertising

Minden weather history for previous 24 hours

 ConditionsComfort  
Time TempWeatherWind HumidityBarometerVisibility
12:20 PM
Sep 19
70 °FBroken clouds.10 mph73%29.89 "HgN/A
11:20 AM68 °FBroken clouds.7 mph78%29.89 "HgN/A
10:20 AM66 °FPartly sunny.8 mph78%29.89 "HgN/A
8:20 AM64 °FPartly sunny.12 mph83%29.89 "HgN/A
7:20 AM64 °FPartly cloudy.10 mph83%29.86 "HgN/A
6:20 AM64 °FPassing clouds.8 mph83%29.86 "HgN/A
5:20 AM64 °FLight rain. Overcast.7 mph83%29.86 "HgN/A
4:20 AM64 °FPartly cloudy.5 mph83%29.89 "HgN/A
3:20 AM63 °FPassing clouds.2 mph88%29.89 "HgN/A
2:20 AM64 °FPassing clouds.2 mph83%29.89 "HgN/A
1:20 AM64 °FPassing clouds.5 mph83%29.89 "HgN/A
12:20 AM64 °FPassing clouds.5 mph83%29.89 "HgN/A
11:20 PM
Sep 18
64 °FPassing clouds.3 mph78%29.89 "HgN/A
10:20 PM64 °FPassing clouds.5 mph78%29.89 "HgN/A
9:20 PM64 °FPassing clouds.5 mph78%29.89 "HgN/A
8:20 PM66 °FPassing clouds.6 mph78%29.89 "HgN/A
7:20 PM70 °FPassing clouds.5 mph69%29.86 "HgN/A
6:20 PM73 °FPassing clouds.12 mph57%29.89 "HgN/A
5:20 PM77 °FPassing clouds.7 mph54%29.86 "HgN/A
4:20 PM79 °FPassing clouds.3 mph51%29.86 "HgN/A
3:20 PM77 °FPassing clouds.6 mph51%29.86 "HgN/A
2:20 PM75 °FPassing clouds.5 mph54%29.86 "HgN/A
1:20 PM75 °FPassing clouds.6 mph54%29.86 "HgN/A
Weather by CustomWeather, © 2014

See weather overviewHow to use our weather pages